Regional Weather Roundup
Issued by NWS

Home | Current Version | Previous Version | Text Only | Print | Product List | Glossary On
Versions: 1 2 3 4 5 6 7 8 9 10 11 12 13 14 15 16 17 18 19 20 21 22 23 24 25 26 27 28 29 30 31 32 33 34 35 36 37 38 39 40 41 42 43 44 45 46 47 48 49 50
360
ASUS43 KLOT 250808
RWRIL

ILLINOIS REGIONAL WEATHER ROUNDUP
NATIONAL WEATHER SERVICE CHICAGO/ROMEOVILLE IL
300 AM CDT WED MAY 25 2016

NOTE: "FAIR" INDICATES FEW OR NO CLOUDS BELOW 12,000 FEET WITH NO
SIGNIFICANT WEATHER AND/OR OBSTRUCTIONS TO VISIBILITY.

* THESE STATIONS ARE NOT UNDER NWS QUALITY CONTROL. THEY ALSO MAY NOT
  REPORT WEATHER SUCH AS PRECIPITATION OR FOG.

ILZ001-002-007-009-015-016-024-250900-
NORTHWEST ILLINOIS

CITY           SKY/WX    TMP DP  RH WIND       PRES   REMARKS
MOLINE         CLOUDY    67  60  78 CALM      29.95F
STERLING*      PTCLDY    67  61  81 CALM      29.98S
SAVANNA*       MOCLDY    67  63  86 SE5       29.96F
$$

ILZ003-004-008-010-011-017-018-250900-
NORTH CENTRAL ILLINOIS

CITY           SKY/WX    TMP DP  RH WIND       PRES   REMARKS
ROCKFORD       PTCLDY    68  60  75 S3        29.99S
FREEPORT*      PTCLDY    66  60  81 SW7       29.99S
ROCHELLE*      CLEAR     65  59  79 S7        29.99S
DE KALB*       CLEAR     64  60  86 S6        30.01R
$$

ILZ005-006-012>014-019>023-250900-
NORTHEAST ILLINOIS

CITY           SKY/WX    TMP DP  RH WIND       PRES   REMARKS
CHICAGO-OHARE  MOCLDY    71  61  70 SW8       29.98F
CHICAGO-MIDWAY CLOUDY    73  59  61 S10       29.99F
AURORA         CLEAR     70  61  73 S7        30.00S
LANSING*       CLOUDY    67  58  71 S6        30.01S
JOLIET*        CLOUDY    70  62  76 S3        29.99F
WAUKEGAN       CLEAR     65  58  78 SW6       29.98S
DUPAGE AIRPORT PTCLDY    68  60  75 S7        29.99S
KANKAKEE*      CLOUDY   N/A N/A N/A S6        30.02F
WHEELING       PTCLDY    72  61  68 SW6       30.00S
MORRIS*        PTCLDY    69  61  75 S5        29.99S
ROMEOVILLE*    MOCLDY    69  59  70 S8        30.00F
NORTHERLY ISL    N/A     73  58  59 SW10        N/A
NORTHERLY ISL    N/A     73  58  59 SW10        N/A
$$

LMZ740>746-250900-
SOUTHERN LAKE MICHIGAN

STATION/POSITION SKY/WX   TEMP    WIND        PRES    VSBY  WAVE
                          AIR SEA DIR/SP/G                  HT/PER
                          (F)     (DEG/KT/KT) (MB)    (MI)  (FT/S)
SOUTHERN BUOY              56 49  200/  8/ 10 1015.2R         0
WILMETTE HARBOR            65 56  210/  4/  4   N/A           1/ 2
HARRISON CRIB              74     210/ 17/ 18   N/A
BURNHAM HARBOR             73     190/  8/ 13   N/A
CALUMET HARBOR             72     190/  8/ 13 1015.3R
BURNS HARBOR               72     200/ 13/ 17 1016.6R
MICHIGAN CITY              71     170/ 10/ 11   N/A
MICHIGAN CITY 6N           63 57  200/  8/  8   N/A           1
ST. JOSEPH                 62 58  200/  6/  6   N/A           1/ 2
$$

ILZ025>027-034>036-040-047-049-050-058-095>099-250900-
WEST-CENTRAL ILLINOIS

CITY           SKY/WX    TMP DP  RH WIND       PRES   REMARKS
QUINCY         CLOUDY    63  61  93 SE5       29.94F
GALESBURG*     CLOUDY    65  61  88 S3        29.97F
MACOMB*        CLOUDY    64  61  91 S3        29.99F
JACKSONVILLE*  CLOUDY    65  61  87 SE6       29.98F
PITTSFIELD*    CLOUDY    62  61  96 SE5       29.97F
$$

ILZ028>032-037-038-041>044-048-051>054-059>061-250900-
CENTRAL ILLINOIS

CITY           SKY/WX    TMP DP  RH WIND       PRES   REMARKS
PONTIAC        PTCLDY    71  64  81 S7        30.01F
BLOOMINGTON    MOCLDY    67  65  93 SW8       30.02F
DECATUR        CLOUDY    66  61  84 SW7       30.02R
PEORIA         CLOUDY    67  62  84 S5        29.99S
LACON*         CLEAR     68  63  84 SE5       29.98S
LINCOLN*       CLOUDY    66  64  93 S5        30.00F
SPRINGFIELD    MOCLDY    66  62  87 S7        30.00S
TAYLORVILLE    CLOUDY    64  62  93 S3        30.01F
$$

ILZ033-039-045-046-055>057-062-063-250900-
EAST-CENTRAL ILLINOIS

CITY           SKY/WX    TMP DP  RH WIND       PRES   REMARKS
CHAMPAIGN      MOCLDY    64  58  80 S5        30.02F
RANTOUL*       CLOUDY    68  60  76 CALM      30.02S
MATTOON        MOCLDY    66  60  81 SW5       30.02S
PARIS*         CLOUDY    66  59  78 CALM      30.04S
$$

ILZ079-100>102-250900-
SOUTHWEST ILLINOIS

CITY           SKY/WX    TMP DP  RH WIND       PRES   REMARKS
ALTON          MOCLDY    61  60  97 CALM      29.99F
BELLEVILLE     MOCLDY    63  63 100 E3        29.99F FOG
CAHOKIA*       MOCLDY    64  61  90 SE5       29.98F
SPARTA*        CLOUDY    63  62  96 SE3       30.02F
$$

ILZ064>066-069>071-074>076-080>082-084>086-088>090-092>094-250900-
SOUTH-CENTRAL ILLINOIS

CITY           SKY/WX    TMP DP  RH WIND       PRES   REMARKS
CARBONDALE     MOCLDY    63  61  93 CALM      30.02S
CAIRO*         PTCLDY    64  64  98 CALM      30.02S
EFFINGHAM*     CLOUDY    65  65 100 CALM      30.04S
MARION         CLOUDY    66  63  88 CALM      30.04S
MT. VERNON     PTCLDY    61  57  88 CALM      30.04S
CENTRALIA*     PTCLDY    64  64  99 S5        30.02F
SALEM*         MOCLDY    65  63  91 CALM      30.03R
METROPOLIS*    CLOUDY    65  65 100 CALM      30.03F
$$

ILZ067-068-072-073-078-083-087-091-250900-
SOUTHEAST ILLINOIS

CITY           SKY/WX    TMP DP  RH WIND       PRES   REMARKS
LAWRENCEVILLE  PTCLDY    65  61  87 CALM      30.04S
FLORA*         PTCLDY    65  63  93 CALM      30.03S
FAIRFIELD*     CLOUDY    64  63  96 CALM      30.03S
HARRISBURG*    CLOUDY    63  62  98 CALM      30.04S
ROBINSON*      CLOUDY    63  59  87 S3        30.05S
CARMI*         CLOUDY    61  61  98 S5        30.03S
$$

ABBREVIATIONS USED IN REMARKS
   TC - TEMPERATURE IN CELSIUS
  WCI - WIND CHILL INDEX
   HX - HEAT INDEX
  VSB - VISIBILITY
$$





USA.gov is the U.S. government's official web portal to all federal, state and local government web resources and services.